Location: Mermaid+Beach
(28.0410°S, 153.4380°E)
Time: 10:12:08
(UTC+10:00)

ISS - Visible Passes

Search period start: 25 November 2017 00:00
Search period end: 05 December 2017 00:00
Orbit: 401 x 407 km, 51.6° (Epoch: 25 November)

Date Brightness Start Highest point End Pass type
(mag) Time Alt. Az. Time Alt. Az. Time Alt. Az.
29 Nov -1.5 03:54:18 10° N 03:56:45 20° NE 03:59:14 10° ESE visible
01 Dec -3.6 03:45:48 16° NNW 03:48:13 65° NE 03:51:31 10° SE visible
02 Dec -2.2 02:55:42 26° NE 02:55:55 26° NE 02:58:43 10° ESE visible
03 Dec -2.9 03:38:09 21° W 03:39:47 37° SW 03:42:54 10° SSE visible
04 Dec -3.4 02:47:51 61° SE 02:47:51 61° SE 02:50:39 10° SE visible
